Location: Asheville, NC
(35.6000°N, 82.5500°W)
Time: 23:52:00

YUBILEINY - Pass Details

Date: 18 March 2018
Orbit: 1478 x 1509 km, 82.5° (Epoch: 19 March)

Event Time Altitude Azimuth Distance (km) Brightness Sun altitude
Rises 06:31:05 0° 347° (NNW) 4,616 ? -14.1°
Reaches altitude 10° 06:34:03 10° 342° (NNW) 3,636 ? -13.5°
Maximum altitude 06:42:22 51° 270° (W) 1,817 ? -11.9°
Drops below altitude 10° 06:50:43 10° 198° (SSW) 3,642 ? -10.2°
Sets 06:53:42 0° 193° (SSW) 4,623 ? -9.6°
